609  
ASUS41 KPHI 210212  
RWRPHI  
 
REGIONAL WEATHER ROUNDUP  
NATIONAL WEATHER SERVICE MOUNT HOLLY NJ  
1000 PM EDT SAT APR 20 2019  
 
NOTE: "FAIR" INDICATES FEW OR NO CLOUDS BELOW 12,000 FEET WITH NO  
SIGNIFICANT WEATHER AND/OR S TO VISIBILITY
.  
 
* = STATION DOES NOT REPORT PRECIPITATION (E.G. RAIN, SNOW, ETC.)  
OR FOG.
 
 
NJZ015>026-210300-  
SOUTHERN NEW JERSEY  
 
CITY SKY/WX TMP DP RH WIND PRES REMARKS
 
POMONA FAIR 58 51 78 S12 29.83S  
WILDWOOD* FAIR 55 51 86 MISG 29.84R  
MILLVILLE FAIR 57 52 83 VRB3 29.82R  
WRIGHTSTOWN FAIR 57 50 79 SE7 29.81R  
MOUNT HOLLY FAIR 57 50 77 S5 29.82R  
TRENTON FAIR 57 49 74 S7 29.81R  
 

 
NJZ001>014-210300-  
NORTHERN NEW JERSEY  
 
CITY SKY/WX TMP DP RH WIND PRES REMARKS
 
SUSSEX FAIR 59 49 69 CALM 29.83R  
ANDOVER* N/A 59 47 64 CALM 29.82R  
MORRISTOWN PTCLDY 59 52 77 SE7 29.84R  
NEWARK MOCLDY 55 49 80 E8 29.85R  
TETERBORO MOCLDY 58 49 72 SE7 29.84R  
CALDWELL MOCLDY 56 51 84 E9 29.85R  
SOMERVILLE FAIR 58 49 72 CALM 29.80S  
ALLAIRE* CLOUDY 57 52 83 SE9 29.86R  
TOMS RIVER* FAIR 57 53 86 SE7 29.85R  
 

 
PAZ043-044-047-054-055-060>062-066>071-210300-  
EASTERN PENNSYLVANIA  
 
CITY SKY/WX TMP DP RH WIND PRES REMARKS
 
PHILADELPHIA MOCLDY 60 50 69 S9 29.81R  
NORTH PHILA FAIR 61 49 64 SE5 29.83R  
BLUE BELL* FAIR 59 50 72 S8 29.82R  
DOYLESTOWN FAIR 58 49 72 VRB5 29.80R  
QUAKERTOWN* CLEAR 61 50 67 S7 29.81  
PERKASIE* FAIR 57 50 77 CALM 29.82R  
POTTSTOWN FAIR 60 49 66 VRB3 29.81R  
LANCASTER FAIR 62 49 62 S8 29.77R  
COATESVILLE FAIR 61 46 59 S5 29.81R  
WEST CHESTER FAIR 59 52 77 SE5 29.81R  
READING FAIR 63 50 62 S7 29.77R  
ALLENTOWN FAIR 64 48 56 S8 29.79R  
QN CITY/ALNTWN FAIR 63 50 63 S7 29.80R  
MOUNT POCONO FAIR 54 47 77 SE12 29.80R  
HAZLETON FAIR 59 45 58 SE8 29.81R  
LEHIGHTON FAIR 61 46 59 SE3 29.79R  
WILKES BARRE FAIR 63 45 51 VRB6 29.77R  
 

 
DEZALL-MDZ008-012-015-019-020-210300-  
DELAWARE AND EASTERN MARYLAND  
 
CITY SKY/WX TMP DP RH WIND PRES REMARKS
 
WILMINGTON FAIR 60 53 77 SE10 29.81R  
DOVER CLEAR 60 51 72 SE7 29.80R  
CHESWOLD CLEAR 61 52 72 S5 29.81R  
GEORGETOWN FAIR 59 50 72 S9 29.82R  
EASTON FAIR 64 51 62 SE7 29.84R  
STEVENSVILLE FAIR 63 45 51 S6 29.79R  
PATUXENT MOCLDY 62 46 55 S3 29.80R  
OCEAN CITY FAIR 59 52 77 S9G17 29.84R  
WALLOPS ISLAND FAIR 60 52 74 S16 29.84R  
CAMBRIDGE CLOUDY 63 55 77 SE5 29.80R  
SALISBURY FAIR 59 50 72 S6 29.82R  
 

 
PAZ001-021-NYZ056-072-MDZ011-DCZ001-210300-  
OTHER NEARBY LOCATIONS  
 
CITY SKY/WX TMP DP RH WIND PRES REMARKS
 
HARRISBURG LGT RAIN 59 48 67 S9G20 29.77R  
STATE COLLEGE PTCLDY 61 37 41 S10G18 29.73R  
WILLIAMSPORT FAIR 64 47 53 VRB6 29.72R  
BINGHAMTON FAIR 60 45 57 S12G20 29.73R  
NEW YORK CITY MOCLDY 55 49 80 CALM 29.88R  
BALTIMORE FAIR 64 41 42 SW6 29.78R  
WASHINGTON DC MOCLDY 64 39 39 SW12 29.79R  
 

 
 
 
CLICK HERE TO GO TO PREVIOUS BULLETINS.

The Nexlab PA Page
The Nexlab NJ Page
The Nexlab DE Page
The Nexlab MD Page Main Text Page